カタログに戻る

SL-8 R/B

運用中PO
NORAD 12508·ROCKET BODY·🇷🇺 Russia

打ち上げ Jun 4, 1981 から Plesetsk Cosmodrome

Loading…

次のパス (今後24時間)

TLE

最新Source: Space-Track

元期: Sep 14, 2026, 03:44 UTC

1 12508U 81053B   26257.15620794  .00000066  00000-0  51162-4 0  9990
2 12508  82.9618 161.8361 0038481 121.5840 238.9082 13.76650679279654

AllMySatでSL-8 R/Bをリアルタイム追跡

Download on the App Store